Location: Kelshall
(52.0000°N, 0.0500°W)
Time: 17:57:23
(UTC+00:00)

Cosmos 1655 Rocket - Visible Passes

Search period start: 15 January 2021 00:00
Search period end: 25 January 2021 00:00
Orbit: 969 x 1007 km, 82.9° (Epoch: 15 January)

Date Brightness Start Highest point End Pass type
(mag) Time Alt. Az. Time Alt. Az. Time Alt. Az.
15 Jan 6.7 05:14:04 10° NE 05:15:20 11° NE 05:16:37 10° ENE visible
15 Jan 5.1 06:56:51 10° N 07:02:50 46° ENE 07:08:48 10° SE visible
16 Jan 6.4 05:41:24 10° NNE 05:45:28 18° NE 05:49:33 10° E visible
17 Jan 5.8 06:10:01 10° N 06:15:21 29° ENE 06:20:41 10° ESE visible
18 Jan 6.7 04:55:51 10° NNE 04:57:34 11° NE 04:59:16 10° ENE visible
18 Jan 5.0 06:38:59 10° N 06:45:00 48° ENE 06:51:01 10° SE visible
19 Jan 6.4 05:23:27 10° NNE 05:27:41 18° ENE 05:31:53 10° E visible
19 Jan 4.2 07:08:09 10° N 07:14:25 80° E 07:20:42 10° SSE visible
20 Jan 5.8 05:52:07 10° N 05:57:32 30° ENE 06:02:56 10° SE visible
21 Jan 6.7 04:37:43 10° NNE 04:39:47 12° NE 04:41:50 10° ENE visible
21 Jan 5.0 06:21:06 10° N 06:27:10 49° ENE 06:33:13 10° SSE visible
22 Jan 6.4 05:05:32 10° NNE 05:09:53 19° ENE 05:14:13 10° ESE visible
22 Jan 4.1 06:50:17 10° N 06:56:34 83° E 07:02:52 10° S visible
22 Jan6.618:57:03NNE18:57:03NNE18:41:56SSEvisible
22 Jan6.720:41:57N20:41:57N20:26:59SSWvisible
23 Jan 5.7 05:34:13 10° N 05:39:43 31° ENE 05:45:13 10° SE visible
23 Jan 6.0 19:12:20 10° SSE 19:25:28 - NNE 19:12:49 12° SSE visible
23 Jan6.621:10:20N21:10:20N20:57:54SWvisible
24 Jan 6.7 04:19:39 10° NNE 04:22:00 12° NE 04:24:21 10° ENE visible
24 Jan 4.9 06:03:13 10° N 06:09:19 52° ENE 06:15:26 10° SSE visible
24 Jan 5.9 18:08:41 - NNE 18:08:41 - NNE 17:59:02 10° ESE visible
24 Jan 5.0 19:41:06 10° S 19:53:32 10° NNE 19:53:33 10° NNE visible
24 Jan 6.5 21:28:51 10° WSW 21:38:22 11° N 21:38:38 10° N visible
